NOAA 21 (JPSS-2)

Last updated on Tue Jul 14 2026 00:02:47 GMT+0000 (Coordinated Universal Time)

1 54234U 22150A 26194.60697997 -.00000013 00000+0 14426-4 0 9998 2 54234 98.7060 132.9525 0002792 107.3984 252.7498 14.19540859190293
UTC large
Height (km)
Speed (km/s)
/
Latitude / Longitude
Inclination (degrees)
Orbital Period (minutes)
Azimuth
Elevation
Range (km)
Doppler Factor

Next 0 passes for location: London (51.5072 / 0.1276)

No passes found over London.